Starlink 31822

operational
NORAD ID: 59752 Int'l Des: 2024-090 Owner: SPXS Country: US Constellation: starlink
LEOCIRCULAR

About Starlink 31822

Description loading...

Live Position

Loading 3D Globe...

Upcoming Passes

Altitude History

Altitude vs Time

uPlot chart will show altitude changes over time

Two-Line Element Set

1 59752U 24090Y 25303.78051834 -.00000258 00000-0 16628-6 0 9997
2 59752 43.0028 197.0309 0002206 285.5143 74.5465 15.27583517 83561
Epoch: Oct 30, 2025 • Age: 29 hours

Current Status

Altitude 494.1 km
Velocity 7.62 km/s
Sub-Earth Point -41.32°S, 76.58°E
Launch Date May 13, 2024
Age 1.4 years
Type internet

Technical Details

Classification Payload
Mass 730.00 kg
Dry Mass 700.00 kg
Total Mass 730.00 kg
Length 0.30 m
Diameter 4.10 m
Span 29.00 m
Shape Box + pan
Manufacturer SPXS
Bus Type Starlink V2M
Phase Status In Orbit
Owner/State SPXS/US

Large Constellations

Loading constellations...